528  
ASUS42 KCAE 202010  
RWRCAE  
REGIONAL WEATHER ROUNDUP  
NATIONAL WEATHER SERVICE COLUMBIA SC  
400 PM EDT FRI APR 20 2018  
 
NOTE: "FAIR" INDICATES FEW OR NO CLOUDS BELOW 12,000 FEET WITH NO  
SIGNIFICANT WEATHER AND/OR S TO VISIBILITY
.  
 
NOT ALL STATIONS ARE QUALITY CONTROLLED BY THE NATIONAL  
WEATHER SERVICE. USE DATA WITH CAUTION...ESPECIALLY  
DEWPOINT OBSERVATIONS.  
 
SCZ001>056-GAZ040-063>065-077-202100-   
..UPSTATE SOUTH CAROLINA
 
 
 
CITY SKY/WX TMP DP RH WIND PRES REMARKS
 
ANDERSON FAIR 66 30 26 CALM 30.30F  
LIBERTY FAIR 66 31 27 S5 30.28F  
SPARTANBURG FAIR 63 23 22 W3 30.30F  
CLEMSON FAIR 63 30 28 VRB5 30.31F  
GREENVILLE FAIR 66 30 26 VRB5 30.30F  
GREENWOOD FAIR 65 30 27 N8 30.31F  
GREER FAIR 63 29 27 E7 30.30F  
ROCK HILL FAIR 64 28 25 VRB3 30.30F  
CHESTER FAIR 63 27 25 NE7 30.31F  
LAURENS FAIR 66 32 28 NW3 30.29F  
 
   
..CENTRAL SOUTH CAROLINA
 
 
 
CITY SKY/WX TMP DP RH WIND PRES REMARKS
 
COLUMBIA APT FAIR 70 26 19 VRB5 30.28F  
COLUMBIA OWENS FAIR 69 24 18 MISG 30.29F  
MCENTIRE ANGB FAIR 68 26 20 N7 30.28F  
ORANGEBURG FAIR 67 29 24 NE8 30.28F  
SUMTER SHAW FAIR 67 27 22 NE7 30.26F  
NEWBERRY FAIR 64 30 27 CALM 30.32F  
AIKEN FAIR 66 30 26 NE6 30.31F  
BARNWELL FAIR 66 27 22 CALM 30.28F  
MANNING FAIR 63 27 25 N6 30.29F  
CAMDEN FAIR 66 23 19 CALM 30.29F  
LANCASTER FAIR 64 27 24 SW6 30.30F  
WINNSBORO FAIR 68 30 24 E5 30.28F  
 
   
..EASTERN AND COASTAL SOUTH CAROLINA
 
 
 
CITY SKY/WX TMP DP RH WIND PRES REMARKS
 
MYRTLE BEACH FAIR 60 38 43 SE9 30.30F  
N MYRTLE BCH FAIR 60 39 45 SE9 30.29F  
CONWAY FAIR 64 30 27 NE5 30.28F HAZE  
MARION FAIR 64 30 27 N7 30.28F  
HARTSVILLE FAIR 68 27 21 E3 30.28F  
FLORENCE FAIR 67 27 22 N8 30.29F  
DARLINGTON FAIR 67 29 24 W7 30.29F  
CHARLESTON APT FAIR 67 39 35 E9 30.27F  
MOUNT PLEASANT FAIR 63 41 45 E5 30.28F  
WALTERBORO FAIR 68 34 28 N5 30.28F  
BEAUFORT FAIR 66 44 45 SE5 30.27  
 
   
..EASTERN GEORGIA
 
 
 
CITY SKY/WX TMP DP RH WIND PRES REMARKS
 
AUGUSTA BUSH F FAIR 70 30 22 NW8 30.28F  
AUGUSTA DANIEL FAIR 68 29 23 VRB3 30.28F  
THOMSON FAIR 66 29 25 SE7 30.34F  
WASHINGTON FAIR 64 28 25 N3 30.29F  
CLAXTON FAIR 69 39 34 N6 30.27F  
SYLVANIA FAIR 68 43 40 E9 30.28F  
STATESBORO FAIR 69 30 23 E6 30.27F  
SAVANNAH FAIR 68 39 34 N6 30.27F  
 
   
..SOUTHERN NORTH CAROLINA
 
 
 
CITY SKY/WX TMP DP RH WIND PRES REMARKS
 
CHARLOTTE FAIR 66 30 26 N9 30.31F  
MONROE FAIR 64 29 26 VRB6 30.29F  
WADESBORO FAIR 65 27 23 CALM 30.29F  
ROCKINGHAM FAIR 64 27 24 NE6 30.28F  
RUTHERFORDTON FAIR 66 30 26 S5 30.29F  
ASHEVILLE FAIR 65 25 22 N10G16 30.29F  
 

 
 
 
CLICK HERE TO GO TO PREVIOUS BULLETINS.

The Nexlab SC Page
The Nexlab GA Page Main Text Page